Observations for Trim Market St
| Time | AQI | Temp °C | Hum % | Pres Pa | CO μg/m³ | H₂S μg/m³ | NO μg/m³ | NO₂ μg/m³ | O₃ μg/m³ | SO₂ μg/m³ | PM1 μg/m³ | PM2.5 μg/m³ | PM10 μg/m³ |
|---|---|---|---|---|---|---|---|---|---|---|---|---|---|
| Tuesday 18 August 2026 | |||||||||||||
| 16:40 | 2 | 23.5 | 48 | 64,709 | 0 | 0 | 1.89 | 11.17 | 85.89 | 0 | 0 | 2.55 | 3.73 |
| 16:37 | 2 | 23.6 | 47 | 64,714 | 0 | 0 | 1.42 | 11.23 | 85.4 | 0 | 0.71 | 3.08 | 3.39 |
| 16:33 | 2 | 23.7 | 47 | 64,787 | 0 | 0 | 1.97 | 11.55 | 85.23 | 0 | 0 | 2.57 | 2.83 |
| 16:32 | 2 | 23.8 | 47 | 64,886 | 0 | 0 | 1.89 | 10.76 | 88.13 | 0 | 0.71 | 2.58 | 2.84 |
| 16:31 | 2 | 23.8 | 47 | 64,956 | 0 | 0 | 1.94 | 10.84 | 89.08 | 0 | 0 | 2.59 | 2.94 |
| 16:30 | 2 | 23.8 | 47 | 65,009 | 0 | 0 | 1.68 | 10.41 | 87.02 | 0 | 0 | 2.08 | 2.28 |
| 16:29 | 2 | 23.9 | 46 | 65,078 | 0 | 0 | 1.5 | 10.55 | 83.98 | 0 | 0 | 2.09 | 2.3 |
| 16:28 | 2 | 23.9 | 46 | 65,109 | 0 | 0 | 1.41 | 10.67 | 89.78 | 0 | 0 | 2.62 | 2.92 |
| 16:27 | 2 | 24 | 46 | 65,119 | 0 | 0 | 1.29 | 9.82 | 82.81 | 0 | 0.71 | 3.14 | 3.45 |
| 16:26 | 2 | 24 | 46 | 65,161 | 0 | 0 | 1.27 | 9.12 | 70.31 | 0 | 0 | 3.14 | 3.46 |
| 16:25 | 2 | 24.1 | 46 | 65,188 | 0 | 0 | 1.35 | 9.75 | 81.26 | 0 | 0 | 2.63 | 2.89 |
| 16:24 | 2 | 24.1 | 46 | 65,226 | 0 | 0 | 1.47 | 10.6 | 82.72 | 0 | 1.43 | 3.15 | 3.47 |
| 16:23 | 2 | 24.2 | 46 | 65,244 | 0 | 0 | 1.8 | 9.56 | 92.2 | 0 | 0 | 4.72 | 5.21 |
| 16:22 | 2 | 24.3 | 46 | 65,262 | 0 | 0 | 1.84 | 9.02 | 62.94 | 0 | 0 | 2.11 | 2.13 |
| 16:21 | 2 | 24.3 | 46 | 65,262 | 0 | 0 | 1.94 | 8.84 | 66.18 | 0 | 0.71 | 3.15 | 3.67 |
| 16:20 | 2 | 24.4 | 46 | 65,256 | 0 | 0 | 1.84 | 10.33 | 63.33 | 0 | 0 | 2.63 | 2.89 |
| 16:17 | 2 | 24.6 | 46 | 65,240 | 0 | 0 | 1.59 | 9.98 | 69.76 | 0 | 0.71 | 2.63 | 2.9 |
| 16:16 | 2 | 24.6 | 46 | 65,226 | 0 | 0 | 1.5 | 9.26 | 65.44 | 0 | 0 | 2.11 | 2.32 |
| 16:15 | 2 | 24.7 | 46 | 65,207 | 0 | 0 | 1.74 | 9.94 | 67.77 | 0 | 0 | 2.1 | 2.31 |
| 16:11 | 2 | 24.8 | 46 | 65,157 | 0 | 0 | 2 | 13.36 | 62.13 | 0 | 0 | 2.09 | 2.3 |